Time,TemperatureF,DewpointF,PressureIn,WindDirection,WindDirectionDegrees,WindSpeedMPH,WindSpeedGustMPH,Humidity,HourlyPrecipIn,Conditions,Clouds,dailyrainin,SoftwareType,DateUTC
2016-07-27 00:04:00,68.9,68.9,29.92,NNW,335,0.0,0.0,-999,0.00,,CLR,0.00,VWS V14.01,2016-07-27 04:04:00,
2016-07-27 00:09:00,68.4,68.4,29.92,NNW,335,0.0,0.0,-999,0.00,,CLR,0.00,VWS V14.01,2016-07-27 04:09:00,
2016-07-27 00:14:00,68.4,68.4,29.92,NNW,335,0.0,0.0,-999,0.00,,CLR,0.00,VWS V14.01,2016-07-27 04:14:00,
2016-07-27 00:19:00,68.4,68.4,29.92,NNW,335,0.0,0.0,-999,0.00,,CLR,0.00,VWS V14.01,2016-07-27 04:19:00,
2016-07-27 00:24:00,68.4,68.4,29.92,NNW,335,0.0,0.0,-999,0.00,,CLR,0.00,VWS V14.01,2016-07-27 04:24:00,
2016-07-27 00:29:00,68.3,68.3,29.92,NNW,335,1.0,2.0,-999,0.00,,CLR,0.00,VWS V14.01,2016-07-27 04:29:00,
2016-07-27 00:34:00,68.3,68.3,29.92,NNW,335,0.0,1.0,-999,0.00,,CLR,0.00,VWS V14.01,2016-07-27 04:34:00,
2016-07-27 00:39:00,68.3,68.3,29.92,NNW,335,0.0,0.0,-999,0.00,,CLR,0.00,VWS V14.01,2016-07-27 04:39:00,
2016-07-27 00:44:00,68.1,68.1,29.92,NNW,335,0.0,0.0,-999,0.00,,CLR,0.00,VWS V14.01,2016-07-27 04:44:00,
2016-07-27 00:49:00,67.8,67.8,29.91,NNW,335,0.0,0.0,-999,0.00,,CLR,0.00,VWS V14.01,2016-07-27 04:49:00,
2016-07-27 00:54:00,67.4,67.4,29.91,NNW,335,0.0,0.0,-999,0.00,,CLR,0.00,VWS V14.01,2016-07-27 04:54:00,
2016-07-27 00:59:00,67.3,67.3,29.91,NNW,335,1.0,2.0,-999,0.00,,CLR,0.00,VWS V14.01,2016-07-27 04:59:00,
2016-07-27 01:05:00,0.0,0.0,0.10,North,0,0.0,0.0,-999,0.00,,CLR,0.00,VWS V14.01,2016-07-27 05:05:00,
2016-07-27 01:10:00,67.3,67.3,29.92,NNW,335,1.0,1.0,-999,0.00,,CLR,0.00,VWS V14.01,2016-07-27 05:10:00,
2016-07-27 01:15:00,67.3,67.3,29.92,NNW,335,2.0,2.0,-999,0.00,,CLR,0.00,VWS V14.01,2016-07-27 05:15:00,
2016-07-27 01:20:00,67.1,67.1,29.91,NNW,335,1.0,1.0,-999,0.00,,CLR,0.00,VWS V14.01,2016-07-27 05:20:00,
2016-07-27 01:25:00,67.3,67.3,29.91,NNW,335,0.0,0.0,-999,0.00,,CLR,0.00,VWS V14.01,2016-07-27 05:25:00,
2016-07-27 01:30:00,67.6,67.6,29.92,NNW,335,0.0,0.0,-999,0.00,,CLR,0.00,VWS V14.01,2016-07-27 05:30:00,
2016-07-27 01:35:00,67.4,67.4,29.92,NNW,335,0.0,0.0,-999,0.00,,CLR,0.00,VWS V14.01,2016-07-27 05:35:00,
2016-07-27 01:41:00,67.1,67.1,29.92,NNW,335,0.0,0.0,-999,0.00,,CLR,0.00,VWS V14.01,2016-07-27 05:41:00,
2016-07-27 01:46:00,66.9,66.9,29.92,NNW,335,0.0,0.0,-999,0.00,,CLR,0.00,VWS V14.01,2016-07-27 05:46:00,
2016-07-27 01:51:00,66.9,66.9,29.92,NNW,335,0.0,0.0,-999,0.00,,CLR,0.00,VWS V14.01,2016-07-27 05:51:00,
2016-07-27 01:56:00,66.8,66.8,29.92,NNW,335,0.0,0.0,-999,0.00,,CLR,0.00,VWS V14.01,2016-07-27 05:56:00,
2016-07-27 02:01:00,66.4,66.4,29.92,NNW,335,0.0,0.0,-999,0.00,,CLR,0.00,VWS V14.01,2016-07-27 06:01:00,
2016-07-27 02:06:00,66.3,66.3,29.92,NNW,335,0.0,0.0,-999,0.00,,CLR,0.00,VWS V14.01,2016-07-27 06:06:00,
2016-07-27 02:11:00,66.0,66.0,29.92,NNW,335,0.0,0.0,-999,0.00,,CLR,0.00,VWS V14.01,2016-07-27 06:11:00,
2016-07-27 02:16:00,65.8,65.8,29.92,NNW,335,0.0,0.0,-999,0.00,,CLR,0.00,VWS V14.01,2016-07-27 06:16:00,
2016-07-27 02:21:00,65.5,65.5,29.92,NNW,335,0.0,0.0,-999,0.00,,CLR,0.00,VWS V14.01,2016-07-27 06:21:00,
2016-07-27 02:26:00,65.3,65.3,29.92,NNW,335,0.0,0.0,-999,0.00,,CLR,0.00,VWS V14.01,2016-07-27 06:26:00,
2016-07-27 02:31:00,65.3,65.3,29.92,NNW,335,0.0,0.0,-999,0.00,,CLR,0.00,VWS V14.01,2016-07-27 06:31:00,
2016-07-27 02:36:00,65.3,65.3,29.92,NNW,335,0.0,0.0,-999,0.00,,CLR,0.00,VWS V14.01,2016-07-27 06:36:00,
2016-07-27 02:41:00,65.2,65.2,29.92,NNW,335,0.0,0.0,-999,0.00,,CLR,0.00,VWS V14.01,2016-07-27 06:41:00,
2016-07-27 02:46:00,65.2,65.2,29.92,NNW,335,0.0,0.0,-999,0.00,,CLR,0.00,VWS V14.01,2016-07-27 06:46:00,
2016-07-27 02:51:00,65.0,65.0,29.92,NNW,335,0.0,0.0,-999,0.00,,CLR,0.00,VWS V14.01,2016-07-27 06:51:00,
2016-07-27 02:56:00,64.8,64.8,29.92,NNW,335,0.0,0.0,-999,0.00,,CLR,0.00,VWS V14.01,2016-07-27 06:56:00,
2016-07-27 03:01:00,64.5,64.5,29.92,NNW,335,0.0,0.0,-999,0.00,,CLR,0.00,VWS V14.01,2016-07-27 07:01:00,
2016-07-27 03:06:00,64.3,64.3,29.92,NNW,335,0.0,0.0,-999,0.00,,CLR,0.00,VWS V14.01,2016-07-27 07:06:00,
2016-07-27 03:11:00,64.2,64.2,29.92,NNW,335,0.0,0.0,-999,0.00,,CLR,0.00,VWS V14.01,2016-07-27 07:11:00,
2016-07-27 03:16:00,64.0,64.0,29.92,NNW,335,2.0,2.0,-999,0.00,,CLR,0.00,VWS V14.01,2016-07-27 07:16:00,
2016-07-27 03:21:00,64.8,64.8,29.92,NNW,335,2.0,4.0,-999,0.00,,CLR,0.00,VWS V14.01,2016-07-27 07:21:00,
2016-07-27 03:26:00,65.2,65.2,29.92,NNW,335,0.0,0.0,-999,0.00,,CLR,0.00,VWS V14.01,2016-07-27 07:26:00,
2016-07-27 03:31:00,65.0,65.0,29.92,NNW,335,0.0,0.0,-999,0.00,,CLR,0.00,VWS V14.01,2016-07-27 07:31:00,
2016-07-27 03:36:00,64.7,64.7,29.92,NNW,335,0.0,0.0,-999,0.00,,CLR,0.00,VWS V14.01,2016-07-27 07:36:00,
2016-07-27 03:42:00,64.5,64.5,29.92,NNW,335,0.0,0.0,-999,0.00,,CLR,0.00,VWS V14.01,2016-07-27 07:42:00,
2016-07-27 03:47:00,64.2,64.2,29.92,NNW,335,0.0,0.0,-999,0.00,,CLR,0.00,VWS V14.01,2016-07-27 07:47:00,
2016-07-27 03:52:00,63.7,63.7,29.92,NNW,335,1.0,2.0,-999,0.00,,CLR,0.00,VWS V14.01,2016-07-27 07:52:00,
2016-07-27 03:57:00,63.4,63.4,29.92,NNW,335,0.0,2.0,-999,0.00,,CLR,0.00,VWS V14.01,2016-07-27 07:57:00,
2016-07-27 04:02:00,63.7,63.7,29.92,NNW,335,0.0,2.0,-999,0.00,,CLR,0.00,VWS V14.01,2016-07-27 08:02:00,
2016-07-27 04:07:00,63.9,63.9,29.92,NNW,335,0.0,0.0,-999,0.00,,CLR,0.00,VWS V14.01,2016-07-27 08:07:00,
2016-07-27 04:12:00,63.7,63.7,29.92,NNW,335,0.0,0.0,-999,0.00,,CLR,0.00,VWS V14.01,2016-07-27 08:12:00,
2016-07-27 04:17:00,63.7,63.7,29.92,NNW,335,0.0,0.0,-999,0.00,,CLR,0.00,VWS V14.01,2016-07-27 08:17:00,
2016-07-27 04:22:00,63.7,63.7,29.92,NNW,335,0.0,0.0,-999,0.00,,CLR,0.00,VWS V14.01,2016-07-27 08:22:00,
2016-07-27 04:27:00,63.7,63.7,29.92,NNW,335,0.0,0.0,-999,0.00,,CLR,0.00,VWS V14.01,2016-07-27 08:27:00,
2016-07-27 04:32:00,63.7,63.7,29.92,NNW,335,0.0,0.0,-999,0.00,,CLR,0.00,VWS V14.01,2016-07-27 08:32:00,
2016-07-27 04:37:00,63.4,63.4,29.92,NNW,335,0.0,0.0,-999,0.00,,CLR,0.00,VWS V14.01,2016-07-27 08:37:00,
2016-07-27 04:42:00,62.9,62.9,29.92,NNW,335,0.0,0.0,-999,0.00,,CLR,0.00,VWS V14.01,2016-07-27 08:42:00,
2016-07-27 04:47:00,62.7,62.7,29.92,NNW,335,0.0,0.0,-999,0.00,,CLR,0.00,VWS V14.01,2016-07-27 08:47:00,
2016-07-27 04:52:00,62.7,62.7,29.92,NNW,335,0.0,0.0,-999,0.00,,CLR,0.00,VWS V14.01,2016-07-27 08:52:00,
2016-07-27 04:57:00,62.6,62.6,29.92,NNW,335,0.0,0.0,-999,0.00,,CLR,0.00,VWS V14.01,2016-07-27 08:57:00,
2016-07-27 05:02:00,62.6,62.6,29.93,NNW,335,1.0,2.0,-999,0.00,,CLR,0.00,VWS V14.01,2016-07-27 09:02:00,
2016-07-27 05:07:00,62.6,62.6,29.93,NNW,335,0.0,0.0,-999,0.00,,CLR,0.00,VWS V14.01,2016-07-27 09:07:00,
2016-07-27 05:12:00,62.6,62.6,29.93,NNW,335,0.0,0.0,-999,0.00,,CLR,0.00,VWS V14.01,2016-07-27 09:12:00,
2016-07-27 05:16:00,62.6,62.6,29.93,NNW,335,0.0,0.0,-999,0.00,,CLR,0.00,VWS V14.01,2016-07-27 09:16:00,
2016-07-27 05:21:00,62.6,62.6,29.93,NNW,335,0.0,0.0,-999,0.00,,CLR,0.00,VWS V14.01,2016-07-27 09:21:00,
2016-07-27 05:26:00,62.6,62.6,29.93,NNW,335,0.0,0.0,-999,0.00,,CLR,0.00,VWS V14.01,2016-07-27 09:26:00,
2016-07-27 05:31:00,62.6,62.6,29.93,NNW,335,0.0,0.0,-999,0.00,,CLR,0.00,VWS V14.01,2016-07-27 09:31:00,
2016-07-27 05:33:00,62.6,62.6,29.93,NNW,335,0.0,0.0,-999,0.00,,CLR,0.00,VWS V14.01,2016-07-27 09:33:00,
2016-07-27 05:34:00,62.6,62.6,29.93,NNW,335,0.0,0.0,-999,0.00,,CLR,0.00,VWS V14.01,2016-07-27 09:34:00,
2016-07-27 05:39:00,62.7,62.7,29.93,NNW,335,0.0,0.0,-999,0.00,,CLR,0.00,VWS V14.01,2016-07-27 09:39:00,
2016-07-27 05:44:00,62.6,62.6,29.93,NNW,335,0.0,0.0,-999,0.00,,CLR,0.00,VWS V14.01,2016-07-27 09:44:00,
2016-07-27 05:50:00,62.4,62.4,29.93,NNW,335,0.0,0.0,-999,0.00,,CLR,0.00,VWS V14.01,2016-07-27 09:50:00,
2016-07-27 05:55:00,62.3,62.3,29.93,NNW,335,0.0,0.0,-999,0.00,,CLR,0.00,VWS V14.01,2016-07-27 09:55:00,
2016-07-27 06:00:00,62.4,62.4,29.93,NNW,335,0.0,0.0,-999,0.00,,CLR,0.00,VWS V14.01,2016-07-27 10:00:00,
2016-07-27 06:05:00,62.3,62.3,29.93,NNW,335,0.0,0.0,-999,0.00,,CLR,0.00,VWS V14.01,2016-07-27 10:05:00,
2016-07-27 06:10:00,62.1,62.1,29.93,NNW,335,0.0,0.0,-999,0.00,,CLR,0.00,VWS V14.01,2016-07-27 10:10:00,
2016-07-27 06:15:00,62.1,62.1,29.93,NNW,335,0.0,0.0,-999,0.00,,CLR,0.00,VWS V14.01,2016-07-27 10:15:00,
2016-07-27 06:20:00,62.1,62.1,29.94,NNW,335,0.0,0.0,-999,0.00,,CLR,0.00,VWS V14.01,2016-07-27 10:20:00,
2016-07-27 06:25:00,62.3,62.3,29.94,NNW,335,0.0,0.0,-999,0.00,,CLR,0.00,VWS V14.01,2016-07-27 10:25:00,
2016-07-27 06:30:00,62.6,62.6,29.94,NNW,335,0.0,0.0,-999,0.00,,CLR,0.00,VWS V14.01,2016-07-27 10:30:00,
2016-07-27 06:35:00,62.7,62.7,29.94,NNW,335,0.0,0.0,-999,0.00,,CLR,0.00,VWS V14.01,2016-07-27 10:35:00,
2016-07-27 06:40:00,62.9,62.9,29.94,NNW,335,0.0,0.0,-999,0.00,,CLR,0.00,VWS V14.01,2016-07-27 10:40:00,
2016-07-27 06:45:00,63.1,63.1,29.94,NNW,335,0.0,0.0,-999,0.00,,CLR,0.00,VWS V14.01,2016-07-27 10:45:00,
2016-07-27 06:50:00,63.2,63.2,29.93,NNW,335,0.0,0.0,-999,0.00,,CLR,0.00,VWS V14.01,2016-07-27 10:50:00,
2016-07-27 06:55:00,63.7,63.7,29.93,NNW,335,0.0,0.0,-999,0.00,,CLR,0.00,VWS V14.01,2016-07-27 10:55:00,
2016-07-27 07:00:00,64.3,64.3,29.93,NNW,335,0.0,0.0,-999,0.00,,CLR,0.00,VWS V14.01,2016-07-27 11:00:00,
2016-07-27 07:05:00,65.2,65.2,29.94,NNW,335,0.0,0.0,-999,0.00,,CLR,0.00,VWS V14.01,2016-07-27 11:05:00,
2016-07-27 07:10:00,66.0,66.0,29.94,NNW,335,0.0,0.0,-999,0.00,,CLR,0.00,VWS V14.01,2016-07-27 11:10:00,
2016-07-27 07:15:00,67.1,67.1,29.94,NNW,335,0.0,0.0,-999,0.00,,CLR,0.00,VWS V14.01,2016-07-27 11:15:00,
2016-07-27 07:20:00,68.3,68.3,29.94,NNW,335,0.0,0.0,-999,0.00,,CLR,0.00,VWS V14.01,2016-07-27 11:20:00,
2016-07-27 07:25:00,69.1,69.1,29.94,NNW,335,0.0,0.0,-999,0.00,,CLR,0.00,VWS V14.01,2016-07-27 11:25:00,
2016-07-27 07:30:00,70.1,70.1,29.94,NNW,335,0.0,0.0,-999,0.00,,CLR,0.00,VWS V14.01,2016-07-27 11:30:00,
2016-07-27 07:35:00,71.5,71.5,29.94,NNW,335,0.0,0.0,-999,0.00,,CLR,0.00,VWS V14.01,2016-07-27 11:35:00,
2016-07-27 07:40:00,72.5,72.5,29.94,NNW,335,0.0,0.0,-999,0.00,,CLR,0.00,VWS V14.01,2016-07-27 11:40:00,
2016-07-27 07:45:00,73.3,73.3,29.94,NNW,335,0.0,0.0,-999,0.00,,CLR,0.00,VWS V14.01,2016-07-27 11:45:00,
2016-07-27 07:50:00,73.5,73.5,29.94,NNW,335,0.0,0.0,-999,0.00,,CLR,0.00,VWS V14.01,2016-07-27 11:50:00,
2016-07-27 07:55:00,74.0,74.0,29.94,NNW,335,0.0,0.0,-999,0.00,,CLR,0.00,VWS V14.01,2016-07-27 11:55:00,
2016-07-27 08:00:00,74.6,74.6,29.94,NNW,335,0.0,0.0,-999,0.00,,CLR,0.00,VWS V14.01,2016-07-27 12:00:00,
2016-07-27 08:05:00,75.1,75.1,29.94,NNW,335,0.0,0.0,-999,0.00,,CLR,0.00,VWS V14.01,2016-07-27 12:05:00,
2016-07-27 08:11:00,76.1,76.1,29.94,NNW,335,0.0,0.0,-999,0.00,,CLR,0.00,VWS V14.01,2016-07-27 12:11:00,
2016-07-27 08:16:00,76.8,76.8,29.94,NNW,335,0.0,0.0,-999,0.00,,CLR,0.00,VWS V14.01,2016-07-27 12:16:00,
2016-07-27 08:21:00,77.2,77.2,29.94,NNW,335,0.0,0.0,-999,0.00,,CLR,0.00,VWS V14.01,2016-07-27 12:21:00,
2016-07-27 08:26:00,77.2,77.2,29.94,NNW,335,0.0,0.0,-999,0.00,,CLR,0.00,VWS V14.01,2016-07-27 12:26:00,
2016-07-27 08:31:00,78.1,78.1,29.93,NNW,335,0.0,1.0,-999,0.00,,CLR,0.00,VWS V14.01,2016-07-27 12:31:00,
2016-07-27 08:36:00,79.0,79.0,29.93,North,349,4.0,7.0,-999,0.00,,CLR,0.00,VWS V14.01,2016-07-27 12:36:00,
2016-07-27 08:41:00,79.6,79.6,29.93,North,11,6.0,7.0,-999,0.00,,CLR,0.00,VWS V14.01,2016-07-27 12:41:00,
2016-07-27 08:46:00,79.6,79.6,29.94,NW,323,0.0,3.0,-999,0.00,,CLR,0.00,VWS V14.01,2016-07-27 12:46:00,
2016-07-27 08:51:00,79.6,79.6,29.94,North,0,5.0,9.0,-999,0.00,,CLR,0.00,VWS V14.01,2016-07-27 12:51:00,
2016-07-27 08:56:00,80.1,80.1,29.94,North,354,4.0,6.0,-999,0.00,,CLR,0.00,VWS V14.01,2016-07-27 12:56:00,
2016-07-27 09:01:00,80.7,80.7,29.94,North,350,5.0,6.0,-999,0.00,,CLR,0.00,VWS V14.01,2016-07-27 13:01:00,
2016-07-27 09:06:00,80.7,80.7,29.94,North,358,6.0,6.0,-999,0.00,,CLR,0.00,VWS V14.01,2016-07-27 13:06:00,
2016-07-27 09:11:00,80.7,80.7,29.94,North,1,3.0,8.0,-999,0.00,,CLR,0.00,VWS V14.01,2016-07-27 13:11:00,
2016-07-27 09:16:00,81.1,81.1,29.94,North,0,0.0,0.0,-999,0.00,,CLR,0.00,VWS V14.01,2016-07-27 13:16:00,
2016-07-27 09:21:00,81.4,81.4,29.94,NW,319,6.0,7.0,-999,0.00,,CLR,0.00,VWS V14.01,2016-07-27 13:21:00,
2016-07-27 09:26:00,81.8,81.8,29.94,ENE,61,2.0,5.0,-999,0.00,,CLR,0.00,VWS V14.01,2016-07-27 13:26:00,
2016-07-27 09:31:00,81.8,81.8,29.93,ENE,77,0.0,1.0,-999,0.00,,CLR,0.00,VWS V14.01,2016-07-27 13:31:00,
2016-07-27 09:36:00,82.0,82.0,29.93,North,358,3.0,7.0,-999,0.00,,CLR,0.00,VWS V14.01,2016-07-27 13:36:00,
2016-07-27 09:41:00,82.6,82.6,29.93,NNW,331,6.0,6.0,-999,0.00,,CLR,0.00,VWS V14.01,2016-07-27 13:41:00,
2016-07-27 09:46:00,82.6,82.6,29.93,NNW,336,4.0,7.0,-999,0.00,,CLR,0.00,VWS V14.01,2016-07-27 13:46:00,
2016-07-27 09:51:00,82.4,82.4,29.93,North,352,0.0,5.0,-999,0.00,,CLR,0.00,VWS V14.01,2016-07-27 13:51:00,
2016-07-27 09:56:00,82.8,82.8,29.93,NW,315,0.0,0.0,-999,0.00,,CLR,0.00,VWS V14.01,2016-07-27 13:56:00,
2016-07-27 10:01:00,83.4,83.4,29.92,North,0,5.0,6.0,-999,0.00,,CLR,0.00,VWS V14.01,2016-07-27 14:01:00,
2016-07-27 10:06:00,83.8,83.8,29.92,NNW,335,2.0,7.0,-999,0.00,,CLR,0.00,VWS V14.01,2016-07-27 14:06:00,
2016-07-27 10:11:00,84.0,84.0,29.92,WSW,250,2.0,8.0,-999,0.00,,CLR,0.00,VWS V14.01,2016-07-27 14:11:00,